Location: Boiro
(42.6475°N, 8.8834°W)
Time: 12:11:30
(UTC+02:00)

deb Agena D - Pass Details

Date: 08 July 2022
Orbit: 997 x 1025 km, 100.1° (Epoch: 16 August)

Event Time Altitude Azimuth Distance (km) Brightness Sun altitude
Exits shadow 03:14:48 17° 255° (WSW) 2,345 ? -24.4°
Maximum altitude 03:16:02 18° 269° (W) 2,296 ? -24.4°
Drops below altitude 10° 03:20:09 10° 310° (NW) 2,825 ? -24.2°
Sets 03:23:37 0° 329° (NNW) 3,780 ? -24.1°
